When you browse on this site, cookies collect data to enhance your experience and personalize the content and advertising you see.
Visit our Privacy Policy to learn more. By continuing to use the site, you agree to this use of cookies and data.
  • In Romania
  • List of Countries
  • For 7 days
  • Water Temperature
  • Weather Map
  • Weather Widgets
  • user-avatar
    Login

    Hourly Weather Saint-Priest

    Today, 26 August, Monday

    Time Temperature Precipitation Wind Pressure Humidity
    00:00 +21°C° 0 mm 1 mps 746 mmHg 69%
    01:00 +20°C° 0 mm 1 mps 746 mmHg 71%
    02:00 +18°C° 0 mm 0 mps 746 mmHg 72%
    03:00 +17°C° 0 mm 0 mps 745 mmHg 74%
    04:00 +18°C° 0 mm 0 mps 746 mmHg 74%
    05:00 +18°C° 0 mm 0 mps 746 mmHg 74%
    06:00 +18°C° 0 mm 0 mps 746 mmHg 74%
    07:00 +20°C° 0 mm 0 mps 746 mmHg 67%
    08:00 +22°C° 0 mm 0 mps 746 mmHg 60%
    09:00 +25°C° 0 mm 0 mps 746 mmHg 53%
    10:00 +28°C° 0 mm 1 mps 745 mmHg 49%
    11:00 +30°C° 0 mm 1 mps 745 mmHg 46%
    12:00 +31°C° 0 mm 1 mps 745 mmHg 42%
    13:00 +31°C° 0 mm 1 mps 745 mmHg 40%
    14:00 +32°C° 0 mm 1 mps 744 mmHg 39%
    15:00 +32°C° 0 mm 1 mps 744 mmHg 37%
    16:00 +30°C° 0 mm 1 mps 744 mmHg 43%
    17:00 +28°C° 0 mm 1 mps 744 mmHg 50%
    18:00 +27°C° 0 mm 1 mps 744 mmHg 56%
    19:00 +24°C° 0 mm 0 mps 744 mmHg 57%
    20:00 +23°C° 0 mm 0 mps 744 mmHg 59%
    21:00 +22°C° 0 mm 0 mps 745 mmHg 60%
    22:00 +23°C° 0 mm 1 mps 745 mmHg 61%
    23:00 +23°C° 0 mm 1 mps 745 mmHg 61%

    Tomorrow, 27 August, Tuesday

    Time Temperature Precipitation Wind Pressure Humidity
    00:00 +22°C° 0 mm 1 mps 745 mmHg 62%
    01:00 +22°C° 0 mm 1 mps 745 mmHg 63%
    02:00 +21°C° 0 mm 1 mps 745 mmHg 64%
    03:00 +21°C° 0 mm 1 mps 745 mmHg 66%
    04:00 +21°C° 0 mm 1 mps 745 mmHg 66%
    05:00 +21°C° 0 mm 1 mps 745 mmHg 67%
    06:00 +21°C° 0 mm 1 mps 745 mmHg 68%
    07:00 +23°C° 0 mm 1 mps 745 mmHg 63%
    08:00 +25°C° 0 mm 2 mps 745 mmHg 57%
    09:00 +28°C° 0 mm 2 mps 745 mmHg 52%
    10:00 +29°C° 0 mm 2 mps 745 mmHg 47%
    11:00 +31°C° 0 mm 2 mps 744 mmHg 42%
    12:00 +34°C° 0 mm 2 mps 744 mmHg 37%
    13:00 +34°C° 0 mm 2 mps 744 mmHg 36%
    14:00 +34°C° 0 mm 2 mps 744 mmHg 35%
    15:00 +35°C° 0 mm 2 mps 744 mmHg 34%
    16:00 +32°C° 0 mm 2 mps 744 mmHg 40%
    17:00 +30°C° 0 mm 2 mps 744 mmHg 46%
    18:00 +28°C° 0 mm 2 mps 744 mmHg 52%
    19:00 +27°C° 0 mm 2 mps 744 mmHg 54%
    20:00 +26°C° 0 mm 2 mps 744 mmHg 56%
    21:00 +25°C° 0 mm 3 mps 745 mmHg 58%
    22:00 +24°C° 0.1 mm 2 mps 745 mmHg 62%
    23:00 +24°C° 0.1 mm 2 mps 745 mmHg 66%

    Day after tomorrow, 28 August, Wednesday

    Time Temperature Precipitation Wind Pressure Humidity
    00:00 +23°C° 0.1 mm 2 mps 745 mmHg 70%
    01:00 +21°C° 0.3 mm 2 mps 745 mmHg 74%
    02:00 +21°C° 0.3 mm 2 mps 745 mmHg 77%
    03:00 +20°C° 0.3 mm 3 mps 745 mmHg 81%
    04:00 +20°C° 0.4 mm 2 mps 745 mmHg 82%
    05:00 +20°C° 0.4 mm 2 mps 745 mmHg 82%
    06:00 +21°C° 0.4 mm 2 mps 745 mmHg 82%
    07:00 +23°C° 0 mm 2 mps 745 mmHg 75%
    08:00 +25°C° 0 mm 2 mps 745 mmHg 68%
    09:00 +27°C° 0 mm 2 mps 745 mmHg 61%
    10:00 +28°C° 0 mm 2 mps 745 mmHg 55%
    11:00 +30°C° 0 mm 2 mps 744 mmHg 49%
    12:00 +31°C° 0 mm 2 mps 744 mmHg 43%
    13:00 +31°C° 0 mm 2 mps 744 mmHg 41%
    14:00 +32°C° 0 mm 1 mps 744 mmHg 39%
    15:00 +32°C° 0 mm 1 mps 744 mmHg 38%
    16:00 +31°C° 0 mm 1 mps 744 mmHg 43%
    17:00 +29°C° 0 mm 1 mps 744 mmHg 49%
    18:00 +27°C° 0 mm 1 mps 744 mmHg 54%
    19:00 +26°C° 0 mm 1 mps 744 mmHg 55%
    20:00 +25°C° 0 mm 1 mps 744 mmHg 55%
    21:00 +24°C° 0 mm 1 mps 745 mmHg 56%
    22:00 +24°C° 0 mm 1 mps 745 mmHg 59%
    23:00 +23°C° 0 mm 1 mps 745 mmHg 63%

    29 August, Thursday

    Time Temperature Precipitation Wind Pressure Humidity
    00:00 +22°C° 0 mm 1 mps 745 mmHg 66%
    01:00 +22°C° 0 mm 1 mps 745 mmHg 69%
    02:00 +21°C° 0 mm 1 mps 745 mmHg 72%
    03:00 +21°C° 0 mm 1 mps 745 mmHg 75%
    04:00 +19°C° 0 mm 0 mps 745 mmHg 75%
    05:00 +19°C° 0 mm 0 mps 745 mmHg 75%
    06:00 +20°C° 0 mm 0 mps 745 mmHg 76%
    07:00 +23°C° 0 mm 1 mps 745 mmHg 70%
    08:00 +25°C° 0 mm 1 mps 746 mmHg 65%
    09:00 +27°C° 0 mm 2 mps 746 mmHg 60%
    10:00 +28°C° 0.2 mm 2 mps 746 mmHg 58%
    11:00 +29°C° 0.2 mm 2 mps 745 mmHg 57%
    12:00 +30°C° 0.2 mm 3 mps 745 mmHg 55%
    13:00 +30°C° 0.2 mm 3 mps 745 mmHg 54%
    14:00 +30°C° 0.2 mm 3 mps 745 mmHg 53%
    15:00 +30°C° 0.2 mm 3 mps 745 mmHg 52%
    16:00 +29°C° 0 mm 2 mps 745 mmHg 56%
    17:00 +28°C° 0 mm 2 mps 745 mmHg 61%
    18:00 +27°C° 0 mm 2 mps 745 mmHg 66%
    19:00 +25°C° 0 mm 2 mps 746 mmHg 67%
    20:00 +24°C° 0 mm 2 mps 746 mmHg 69%
    21:00 +23°C° 0 mm 2 mps 746 mmHg 70%
    22:00 +21°C° 0 mm 2 mps 746 mmHg 74%
    23:00 +21°C° 0 mm 2 mps 746 mmHg 77%

    30 August, Friday

    Time Temperature Precipitation Wind Pressure Humidity
    00:00 +20°C° 0 mm 2 mps 746 mmHg 80%
    01:00 +20°C° 0 mm 2 mps 746 mmHg 83%
    02:00 +20°C° 0 mm 1 mps 746 mmHg 85%
    03:00 +20°C° 0 mm 1 mps 746 mmHg 88%
    04:00 +20°C° 0 mm 1 mps 746 mmHg 88%
    05:00 +20°C° 0 mm 1 mps 746 mmHg 88%
    06:00 +20°C° 0 mm 1 mps 746 mmHg 88%
    07:00 +21°C° 0 mm 2 mps 746 mmHg 82%
    08:00 +24°C° 0 mm 2 mps 746 mmHg 75%
    09:00 +25°C° 0 mm 2 mps 746 mmHg 68%
    10:00 +27°C° 0 mm 3 mps 746 mmHg 62%
    11:00 +28°C° 0 mm 3 mps 746 mmHg 56%
    12:00 +29°C° 0 mm 3 mps 745 mmHg 50%
    13:00 +29°C° 0 mm 3 mps 745 mmHg 49%
    14:00 +29°C° 0 mm 3 mps 745 mmHg 47%
    15:00 +30°C° 0 mm 3 mps 744 mmHg 46%
    16:00 +28°C° 0 mm 2 mps 744 mmHg 51%
    17:00 +27°C° 0 mm 2 mps 744 mmHg 55%
    18:00 +25°C° 0 mm 1 mps 744 mmHg 60%
    19:00 +24°C° 0 mm 1 mps 744 mmHg 62%
    20:00 +23°C° 0 mm 1 mps 745 mmHg 64%
    21:00 +22°C° 0 mm 1 mps 745 mmHg 66%
    22:00 +21°C° 0 mm 1 mps 745 mmHg 68%
    23:00 +21°C° 0 mm 1 mps 744 mmHg 70%

    31 August, Saturday

    Time Temperature Precipitation Wind Pressure Humidity
    00:00 +20°C° 0 mm 1 mps 744 mmHg 72%
    01:00 +18°C° 0 mm 0 mps 744 mmHg 74%
    02:00 +17°C° 0 mm 0 mps 744 mmHg 76%
    03:00 +17°C° 0 mm 0 mps 744 mmHg 79%
    04:00 +17°C° 0 mm 0 mps 744 mmHg 79%
    05:00 +17°C° 0 mm 0 mps 744 mmHg 79%
    06:00 +18°C° 0 mm 0 mps 744 mmHg 80%
    07:00 +20°C° 0 mm 0 mps 744 mmHg 72%
    08:00 +22°C° 0 mm 0 mps 744 mmHg 65%
    09:00 +24°C° 0 mm 0 mps 744 mmHg 57%
    10:00 +28°C° 0 mm 1 mps 743 mmHg 52%
    11:00 +29°C° 0 mm 1 mps 743 mmHg 47%
    12:00 +31°C° 0 mm 1 mps 743 mmHg 42%
    13:00 +31°C° 0 mm 1 mps 743 mmHg 41%
    14:00 +31°C° 0 mm 1 mps 742 mmHg 40%
    15:00 +31°C° 0 mm 1 mps 742 mmHg 39%
    16:00 +30°C° 0 mm 1 mps 742 mmHg 44%
    17:00 +28°C° 0 mm 1 mps 742 mmHg 49%
    18:00 +26°C° 0 mm 1 mps 742 mmHg 55%
    19:00 +25°C° 0 mm 1 mps 742 mmHg 55%
    20:00 +24°C° 0 mm 1 mps 742 mmHg 55%
    21:00 +23°C° 0 mm 1 mps 743 mmHg 56%
    22:00 +23°C° 0 mm 1 mps 743 mmHg 57%
    23:00 +23°C° 0 mm 1 mps 743 mmHg 58%
    Show more